Time,TemperatureF,DewpointF,PressureIn,WindDirection,WindDirectionDegrees,WindSpeedMPH,WindSpeedGustMPH,Humidity,HourlyPrecipIn,Conditions,Clouds,dailyrainin,SoftwareType,DateUTC
2013-01-13 00:30:00,42.7,40.8,30.13,WSW,254,0.0,0.0,93,0.00,,,0.01,Wunderground v.1.15,2013-01-13 05:30:00,
2013-01-13 01:30:00,42.6,40.7,30.13,WSW,255,0.0,0.0,93,0.00,,,0.01,Wunderground v.1.15,2013-01-13 06:30:00,
2013-01-13 02:00:00,42.6,40.7,30.14,WSW,254,0.0,0.0,93,0.00,,,0.01,Wunderground v.1.15,2013-01-13 07:00:00,
2013-01-13 02:30:00,42.6,40.7,30.14,West,281,0.0,0.0,93,0.00,,,0.01,Wunderground v.1.15,2013-01-13 07:30:00,
2013-01-13 03:00:00,42.6,40.7,30.13,West,266,0.0,0.0,93,0.00,,,0.01,Wunderground v.1.15,2013-01-13 08:00:00,
2013-01-13 03:30:00,42.5,40.6,30.13,West,266,0.0,0.0,93,0.00,,,0.01,Wunderground v.1.15,2013-01-13 08:30:00,
2013-01-13 04:00:00,42.5,40.6,30.11,SSE,150,0.0,0.0,93,0.00,,,0.01,Wunderground v.1.15,2013-01-13 09:00:00,
2013-01-13 04:30:00,42.5,40.6,30.11,SE,143,0.0,0.0,93,0.00,,,0.01,Wunderground v.1.15,2013-01-13 09:30:00,
2013-01-13 05:00:00,42.5,40.6,30.11,SSW,194,0.0,0.0,93,0.00,,,0.01,Wunderground v.1.15,2013-01-13 10:00:00,
2013-01-13 05:30:00,42.7,40.8,30.09,SSW,193,0.0,0.0,93,0.00,,,0.01,Wunderground v.1.15,2013-01-13 10:30:00,
2013-01-13 06:00:00,43.0,41.1,30.11,West,262,0.0,0.0,93,0.00,,,0.01,Wunderground v.1.15,2013-01-13 11:00:00,
2013-01-13 06:30:00,42.8,40.9,30.11,West,267,0.0,0.0,93,0.00,,,0.01,Wunderground v.1.15,2013-01-13 11:30:00,
2013-01-13 07:00:00,43.0,41.1,30.12,West,266,0.0,0.0,93,0.00,,,0.01,Wunderground v.1.15,2013-01-13 12:00:00,
2013-01-13 07:30:00,43.2,41.3,30.12,West,263,0.0,0.0,93,0.00,,,0.01,Wunderground v.1.15,2013-01-13 12:30:00,
2013-01-13 08:00:00,43.5,41.6,30.14,NNW,340,0.0,0.0,93,0.00,,,0.01,Wunderground v.1.15,2013-01-13 13:00:00,
2013-01-13 08:30:00,44.0,42.1,30.14,WSW,254,0.0,1.0,93,0.00,,,0.01,Wunderground v.1.15,2013-01-13 13:30:00,
2013-01-13 09:00:00,44.6,42.7,30.14,East,91,0.0,0.0,93,0.00,,,0.01,Wunderground v.1.15,2013-01-13 14:00:00,
2013-01-13 09:30:00,45.2,43.3,30.14,South,178,0.0,0.0,93,0.00,,,0.01,Wunderground v.1.15,2013-01-13 14:30:00,
2013-01-13 10:00:00,46.0,44.1,30.14,WSW,252,0.0,0.0,93,0.00,,,0.01,Wunderground v.1.15,2013-01-13 15:00:00,
2013-01-13 10:30:00,46.9,45.0,30.14,NW,307,0.0,0.0,93,0.00,,,0.01,Wunderground v.1.15,2013-01-13 15:30:00,
2013-01-13 11:00:00,47.1,45.2,30.13,SSW,198,0.0,0.0,93,0.00,,,0.01,Wunderground v.1.15,2013-01-13 16:00:00,
2013-01-13 11:30:00,47.5,45.6,30.11,ESE,122,0.0,0.0,93,0.00,,,0.01,Wunderground v.1.15,2013-01-13 16:30:00,
2013-01-13 12:00:00,48.2,46.0,30.10,SSE,153,0.0,0.0,92,0.00,,,0.01,Wunderground v.1.15,2013-01-13 17:00:00,
2013-01-13 12:30:00,49.1,46.9,30.08,ESE,120,0.0,1.0,92,0.00,,,0.01,Wunderground v.1.15,2013-01-13 17:30:00,
2013-01-13 13:00:00,49.4,46.9,30.07,SSW,212,0.0,0.0,91,0.00,,,0.01,Wunderground v.1.15,2013-01-13 18:00:00,
2013-01-13 13:30:00,49.9,47.1,30.07,East,93,0.0,1.0,90,0.00,,,0.01,Wunderground v.1.15,2013-01-13 18:30:00,
2013-01-13 14:00:00,50.3,47.2,30.07,West,262,1.0,1.0,89,0.00,,,0.01,Wunderground v.1.15,2013-01-13 19:00:00,
2013-01-13 14:30:00,50.8,47.7,30.06,NW,325,0.0,0.0,89,0.00,,,0.01,Wunderground v.1.15,2013-01-13 19:30:00,
2013-01-13 15:00:00,51.0,47.9,30.05,NNW,329,0.0,0.0,89,0.00,,,0.01,Wunderground v.1.15,2013-01-13 20:00:00,
2013-01-13 15:30:00,51.4,48.3,30.04,NNE,21,0.0,1.0,89,0.00,,,0.01,Wunderground v.1.15,2013-01-13 20:30:00,
2013-01-13 16:00:00,51.4,48.3,30.04,NNW,347,0.0,0.0,89,0.00,,,0.01,Wunderground v.1.15,2013-01-13 21:00:00,
2013-01-13 16:30:00,50.8,47.7,30.03,NNE,27,0.0,0.0,89,0.00,,,0.01,Wunderground v.1.15,2013-01-13 21:30:00,
2013-01-13 17:00:00,50.9,48.1,30.02,ENE,72,0.0,0.0,90,0.00,,,0.01,Wunderground v.1.15,2013-01-13 22:00:00,
2013-01-13 17:30:00,50.3,47.5,30.01,SSW,205,0.0,0.0,90,0.00,,,0.01,Wunderground v.1.15,2013-01-13 22:30:00,
2013-01-13 18:00:00,49.8,47.0,30.00,East,89,0.0,1.0,90,0.00,,,0.01,Wunderground v.1.15,2013-01-13 23:00:00,
2013-01-13 18:30:00,49.7,47.2,30.00,West,261,0.0,1.0,91,0.00,,,0.01,Wunderground v.1.15,2013-01-13 23:30:00,
2013-01-13 19:00:00,50.0,47.2,30.00,South,173,1.0,1.0,90,0.00,,,0.01,Wunderground v.1.15,2013-01-14 00:00:00,
2013-01-13 19:30:00,50.3,47.5,30.00,SW,226,1.0,1.0,90,0.00,,,0.01,Wunderground v.1.15,2013-01-14 00:30:00,
2013-01-13 20:00:00,50.6,47.5,30.01,West,278,1.0,1.0,89,0.00,,,0.01,Wunderground v.1.15,2013-01-14 01:00:00,
2013-01-13 20:30:00,50.8,47.7,30.01,SSW,207,0.0,0.0,89,0.00,,,0.01,Wunderground v.1.15,2013-01-14 01:30:00,
2013-01-13 21:00:00,50.8,47.7,30.01,WSW,245,0.0,0.0,89,0.00,,,0.01,Wunderground v.1.15,2013-01-14 02:00:00,
2013-01-13 21:30:00,51.0,47.9,29.99,WSW,242,0.0,1.0,89,0.00,,,0.01,Wunderground v.1.15,2013-01-14 02:30:00,
2013-01-13 22:00:00,51.4,48.0,29.99,ESE,113,0.0,0.0,88,0.00,,,0.01,Wunderground v.1.15,2013-01-14 03:00:00,
2013-01-13 22:30:00,51.9,48.2,29.99,WSW,238,1.0,1.0,87,0.00,,,0.01,Wunderground v.1.15,2013-01-14 03:30:00,
2013-01-13 23:00:00,52.2,48.4,29.99,WSW,249,0.0,0.0,87,0.00,,,0.01,Wunderground v.1.15,2013-01-14 04:00:00,
2013-01-13 23:30:00,52.6,48.8,29.98,SE,124,1.0,1.0,87,0.00,,,0.01,Wunderground v.1.15,2013-01-14 04:30:00,